Weather History for KFRI - December, 2012

Change the Weather History Date:

Monday, December 3, 2012

  Actual Average (KMHK) Record (KMHK)
Temperature  
Mean Temperature 56 °F 34 °F  
Max Temperature 66 °F 46 °F 69 °F (1998)
Min Temperature 43 °F 23 °F 8 °F (2006)
Degree Days  
Heating Degree Days 10 31  
Month to date heating degree days 91  
Since 1 July heating degree days 1166  
Cooling Degree Days 0 0  
Month to date cooling degree days 0  
Year to date cooling degree days 1362  
Growing Degree Days 6 (Base 50)    
Moisture  
Dew Point 47 °F    
Average Humidity 68    
Maximum Humidity 100    
Minimum Humidity 37    
Precipitation  
Precipitation 0.02 in 0.04 in 1.38 in (2011)
Month to date precipitation 0.13  
Year to date precipitation 31.66  
Sea Level Pressure  
Sea Level Pressure 29.82 in    
Wind  
Wind Speed 17 mph (WSW)    
Max Wind Speed 25 mph    
Max Gust Speed 33 mph    
Visibility 10 miles    
Events      
T = Trace of Precipitation, MM = Missing Value Source: NWS Daily Summary

Daily Weather History Graph

Daily Weather History Graph

Search for Another Location

Airport or City:

Trip Planner

Search our weather history database for the weather conditions in past years. The results will help you decide how hot, cold, wet, or windy it might be!

Date:

Astronomy

Dec. 03, 2012 Rise Set
Actual Time 7:29 AM CST 5:04 PM CST
Civil Twilight 6:59 AM CST 5:34 PM CST
Nautical Twilight 6:26 AM CST 6:07 PM CST
Astronomical Twilight 5:54 AM CST 6:39 PM CST
Moon 9:51 PM CST (12/3) 10:54 AM CST (12/3)
Length of Visible Light 10h 34m
Length of Day
9h 35m
Waning Gibbous, 78% of the Moon is Illuminated
Dec 3
Waning Gibbous
Dec 6
Last Quarter
Dec 13
New
Dec 19
First Quarter
Dec 28
Full

Hourly Weather History & Observations

Time (CST) Temp. Dew Point Humidity Pressure Visibility Wind Dir Wind Speed Gust Speed Precip Events Conditions
12:55 AM 60.4 °F 57.4 °F 90% 29.69 in 10.0 mi SSE 24.2 mph 33.4 mph 0.01 in   Clear
1:55 AM 61.9 °F 61.2 °F 97% 29.66 in 10.0 mi SSE 20.7 mph 32.2 mph 0.01 in   Clear
2:55 AM 63.1 °F 60.1 °F 90% 29.63 in 10.0 mi SSE 23.0 mph 31.1 mph N/A   Clear
3:55 AM 63.7 °F 59.2 °F 85% 29.60 in 10.0 mi South 25.3 mph 33.4 mph N/A   Clear
4:55 AM 62.8 °F 59.9 °F 90% 29.61 in 10.0 mi South 18.4 mph - N/A   Clear
5:55 AM 62.4 °F 60.4 °F 93% 29.61 in 10.0 mi South 19.6 mph 33.4 mph N/A   Clear
6:55 AM 61.9 °F 60.6 °F 96% 29.64 in 10.0 mi South 15.0 mph 25.3 mph N/A   Clear
7:55 AM 59.4 °F 59.4 °F 100% 29.67 in 10.0 mi South 10.4 mph - N/A   Clear
8:55 AM 62.6 °F 58.1 °F 85% 29.68 in 10.0 mi SSW 16.1 mph 21.9 mph N/A   Clear
9:55 AM 64.9 °F 56.1 °F 73% 29.73 in 10.0 mi SW 16.1 mph 27.6 mph N/A   Clear
10:55 AM 66.6 °F 50.2 °F 56% 29.75 in 10.0 mi WSW 17.3 mph 25.3 mph N/A   Clear
11:55 AM 66.7 °F 45.3 °F 46% 29.75 in 10.0 mi West 9.2 mph - N/A   Clear
12:55 PM 63.5 °F 36.5 °F 37% 29.79 in 10.0 mi NW 12.7 mph 20.7 mph N/A   Clear
1:55 PM 61.9 °F 39.6 °F 44% 29.82 in 10.0 mi NNW 12.7 mph 20.7 mph N/A   Clear
2:55 PM 61.3 °F 39.6 °F 45% 29.85 in 10.0 mi North 18.4 mph 28.8 mph N/A   Clear
3:55 PM 60.6 °F 41.0 °F 48% 29.88 in 10.0 mi North 13.8 mph 24.2 mph N/A   Clear
4:55 PM 58.6 °F 41.4 °F 53% 29.92 in 10.0 mi NNW 4.6 mph - N/A   Clear
5:55 PM 56.8 °F 38.8 °F 51% 29.96 in 10.0 mi North 8.1 mph - N/A   Clear
6:55 PM 55.8 °F 37.6 °F 51% 30.00 in 10.0 mi NNW 9.2 mph - N/A   Partly Cloudy
7:55 PM 55.0 °F 36.9 °F 50% 30.02 in 10.0 mi North 10.4 mph - N/A   Partly Cloudy
8:55 PM 52.7 °F 36.3 °F 54% 30.05 in 10.0 mi North 9.2 mph - N/A   Scattered Clouds
9:55 PM 48.4 °F 35.2 °F 60% 30.07 in 10.0 mi NE 3.5 mph - N/A   Clear
10:55 PM 45.3 °F 34.3 °F 65% 30.09 in 10.0 mi Calm Calm - N/A   Clear
11:55 PM 43.7 °F 33.4 °F 67% 30.11 in 10.0 mi Calm Calm - N/A   Clear